This is the latest recevied weather packets stored in our database for station/object WI0K. If no packets are shown the sender has not sent any weather packets the latest 10 day(s).
| Time | Temp. | Humidity | Pressure | Rain* | Wind** | Luminosity | Snow |
|---|---|---|---|---|---|---|---|
| 1787873837 | 28.33° C | 34% | 834 hPa | 0 mm | - | 152 W/m² | - |
| 1787873536 | 28.89° C | 32% | 833.9 hPa | 0 mm | - | 145 W/m² | - |
| 1787873236 | 29.44° C | 30% | 833.9 hPa | 0 mm | - | 115 W/m² | - |
| 1787872935 | 29.44° C | 26% | 833.9 hPa | 0 mm | - | 93 W/m² | - |
| 1787872634 | 29.44° C | 27% | 833.9 hPa | 0 mm | - | 95 W/m² | - |
| 1787872334 | 29.44° C | 26% | 834 hPa | 0 mm | - | 97 W/m² | - |
| 1787872034 | 29.44° C | 26% | 834 hPa | 0 mm | - | 101 W/m² | - |
| 1787871733 | 30° C | 25% | 834 hPa | 0 mm | - | 100 W/m² | - |
| 1787871432 | 30° C | 26% | 834 hPa | 0 mm | - | 90 W/m² | - |
| 1787871131 | 30° C | 24% | 1021.5 hPa | 0 mm | - | 101 W/m² | - |
| 1787870831 | 30° C | 24% | 834 hPa | 0 mm | - | 101 W/m² | - |
| 1787870532 | 30° C | 24% | 1021.6 hPa | 0 mm | - | 135 W/m² | - |
| 1787870229 | 30° C | 25% | 834.2 hPa | 0 mm | - | 154 W/m² | - |
| 1787869928 | 30° C | 26% | 1021.8 hPa | 0 mm | - | 193 W/m² | - |
| 1787869635 | 30° C | 25% | 1021.9 hPa | 0 mm | - | 189 W/m² | - |
| 1787869327 | 30° C | 26% | 1021.9 hPa | 0 mm | - | 176 W/m² | - |
| 1787869026 | 30° C | 26% | 834.4 hPa | 0 mm | - | 174 W/m² | - |
| 1787868726 | 30° C | 25% | 1022.1 hPa | 0 mm | - | 188 W/m² | - |
| 1787868425 | 30° C | 26% | 834.5 hPa | 0 mm | - | 202 W/m² | - |
| 1787868125 | 30.56° C | 26% | 834.5 hPa | 0 mm | - | 202 W/m² | - |
| 1787867824 | 30.56° C | 25% | 834.5 hPa | 0 mm | - | 209 W/m² | - |
| 1787867524 | 30.56° C | 26% | 834.5 hPa | 0 mm | - | 211 W/m² | - |
| 1787867223 | 30.56° C | 25% | 834.5 hPa | 0 mm | - | 201 W/m² | - |
| 1787866923 | 30.56° C | 26% | 1022.1 hPa | 0 mm | - | 235 W/m² | - |
| 1787866622 | 31.11° C | 25% | 834.4 hPa | 0 mm | - | 238 W/m² | - |
* Rain latest hour (hover to see other rain measurements)
** Current wind speed in m/s (hover to see current wind gust speed)